This demonstration page uses our WeatherBlox Daily Observations layout. Learn more.

40.92945, -100.16068

Hourly Observations for May 31, 2017

Temp ( °F °C ) Dew Point ( °F °C ) Humidity (%) Winds ( mph kmh ) Pressure ( in mb ) Visibility ( mi km ) Precip ( " mm )
12:15 am 00:15 Clear 58 14.2 42 5.3 55 55 Calm 30.03 1017 10 16.09344 0 0
12:35 am 00:35 Clear 57 14.1 41 5 55 55 Calm 30.03 1017 10 16.09344 0 0
12:55 am 00:55 Clear 54 12.4 42 5.7 64 64 Calm 30.06 1018 10 16.09344 0 0
1:15 am 01:15 Partly Cloudy 55 12.7 43 5.9 64 64 Calm 30.06 1018 10 16.09344 0 0
1:55 am 01:55 Partly Cloudy 51 10.7 42 5.8 72 72 Calm 30.06 1018 10 16.09344 0 0
2:15 am 02:15 Mostly Cloudy 51 10.6 44 6.5 76 76 N 5 7 30.06 1018 10 16.09344 0 0
2:35 am 02:35 Mostly Cloudy 51 10.8 44 6.6 76 76 Calm 30.06 1018 10 16.09344 0 0
2:55 am 02:55 Mostly Cloudy 51 10.6 45 7.2 80 80 N 5 7 30.06 1018 10 16.09344 0 0
3:15 am 03:15 Mostly Cloudy 52 11.2 46 7.6 79 79 Calm 30.06 1018 10 16.09344 0 0
3:35 am 03:35 Partly Cloudy 52 11 46 7.5 79 79 NNW 5 7 30.06 1018 10 16.09344 0 0
3:55 am 03:55 Partly Cloudy 53 11.6 46 7.5 76 76 N 6 9 30.06 1018 10 16.09344 0 0
4:15 am 04:15 Clear 54 12 44 6.7 70 70 NNE 6 9 30.06 1018 10 16.09344 0 0
4:35 am 04:35 Clear 52 11.3 44 6.7 74 74 Calm 30.06 1018 10 16.09344 0 0
4:55 am 04:55 Mostly Cloudy 51 10.7 45 7.3 80 80 W 5 7 30.06 1018 10 16.09344 0 0
5:15 am 05:15 Mostly Cloudy 52 11.1 46 7.6 79 79 NE 3 6 30.06 1018 10 16.09344 0 0
5:35 am 05:35 Mostly Cloudy 54 12.1 44 6.5 69 69 NNE 7 11 30.06 1018 10 16.09344 0 0
5:55 am 05:55 Cloudy 55 12.5 43 6 65 65 ENE 7 11 30.06 1018 10 16.09344 0 0
6:15 am 06:15 Mostly Cloudy 56 13.3 41 4.9 57 57 ESE 12 19 30.06 1018 10 16.09344 0 0
6:35 am 06:35 Mostly Cloudy 56 13.2 40 4.7 57 57 E 8 13 30.06 1018 10 16.09344 0 0
6:55 am 06:55 Partly Cloudy 55 12.5 42 5.5 63 63 ENE 7 11 30.06 1018 10 16.09344 0 0
7:15 am 07:15 Partly Cloudy 57 13.8 40 4.6 54 54 ESE 7 11 30.03 1017 10 16.09344 0 0
7:35 am 07:35 Partly Cloudy 58 14.3 41 4.8 53 53 ESE 7 11 30.03 1017 7 11.265408 0 0
7:55 am 07:55 Partly Cloudy 59 15 42 5.4 53 53 ENE 6 9 30.06 1018 10 16.09344 0 0
8:15 am 08:15 Mostly Cloudy 58 14.7 42 5.6 55 55 NE 8 13 30.06 1018 10 16.09344 0 0
8:35 am 08:35 Partly Cloudy 61 15.9 42 5.7 51 51 ENE 12 19 30.06 1018 10 16.09344 0 0
8:55 am 08:55 Sunny 63 17.2 42 5.6 47 47 E 8 13 30.06 1018 10 16.09344 0 0
9:15 am 09:15 Mostly Cloudy 63 17.4 41 5.1 44 44 SE 9 15 30.03 1017 10 16.09344 0 0
9:35 am 09:35 Partly Cloudy with Nearby Thunderstorms 65 18.4 42 5.6 43 43 E 9 15 30.03 1017 10 16.09344 0 0
9:55 am 09:55 Partly Cloudy with Nearby Thunderstorms 64 17.7 41 5 43 43 ESE 6 9 30.03 1017 10 16.09344 0 0
10:15 am 10:15 Mostly Cloudy 64 17.5 42 5.8 46 46 SE 13 20 30 1016 10 16.09344 0 0
10:35 am 10:35 Partly Cloudy 65 18.6 43 6.2 44 44 E 12 19 30 1016 10 16.09344 0 0
10:55 am 10:55 Partly Cloudy 69 20.7 42 5.5 37 37 ESE 13 20 29.97 1015 10 16.09344 0 0
11:15 am 11:15 Cloudy 70 21.3 43 5.9 37 37 E 16 26 29.97 1015 10 16.09344 0 0
11:35 am 11:35 Mostly Cloudy 73 22.6 42 5.8 34 34 E 13 20 29.97 1015 10 16.09344 0 0
11:55 am 11:55 Cloudy 72 22 43 6.2 36 36 E 10 17 29.97 1015 7 11.265408 0 0
12:15 pm 12:15 Cloudy 68 20 48 8.9 49 49 Calm 30.06 1018 7 11.265408 0.02 0.508
12:35 pm 12:35 Mostly Cloudy with Light Rain 61 16.2 50 9.8 66 66 E 13 20 30.03 1017 7 11.265408 0.16 4.064
12:55 pm 12:55 Sunny 67 19.7 53 11.7 60 60 ENE 14 22 30 1016 10 16.09344 0.16 4.064
1:15 pm 13:15 Mostly Cloudy 70 20.9 51 10.5 52 52 ENE 18 30 29.97 1015 10 16.09344 0 0
1:35 pm 13:35 Cloudy 69 20.5 48 9 48 48 E 17 28 29.97 1015 10 16.09344 0 0
1:55 pm 13:55 Cloudy 71 21.9 48 9.1 44 44 E 15 24 29.97 1015 10 16.09344 0 0
2:15 pm 14:15 Mostly Cloudy 73 22.9 47 8.2 39 39 E 14 22 29.97 1015 10 16.09344 0 0
2:35 pm 14:35 Mostly Cloudy 73 23 45 7.3 37 37 ESE 18 30 29.97 1015 10 16.09344 0 0
2:55 pm 14:55 Partly Cloudy 74 23.1 46 7.8 38 38 ESE 20 31 29.97 1015 10 16.09344 0 0
3:15 pm 15:15 Partly Cloudy 73 22.8 47 8.1 39 39 ESE 14 22 29.94 1014 10 16.09344 0 0
3:35 pm 15:35 Partly Cloudy 75 23.8 47 8.2 37 37 ESE 17 28 29.97 1015 10 16.09344 0 0
3:55 pm 15:55 Partly Cloudy 75 23.7 46 7.9 36 36 E 15 24 29.91 1013 10 16.09344 0 0
4:15 pm 16:15 Sunny with Nearby Thunderstorms 75 24.1 48 9.1 39 39 ESE 16 26 29.91 1013 10 16.09344 0 0
4:35 pm 16:35 Sunny 75 23.7 46 8 37 37 SE 14 22 29.91 1013 10 16.09344 0 0
4:55 pm 16:55 Sunny 75 23.9 46 7.9 36 36 ESE 15 24 29.91 1013 10 16.09344 0 0
5:15 pm 17:15 Sunny 75 23.7 47 8.4 38 38 E 13 20 29.91 1013 10 16.09344 0 0
5:35 pm 17:35 Sunny 75 23.7 46 7.9 36 36 E 16 26 29.91 1013 10 16.09344 0 0
5:55 pm 17:55 Sunny 75 24 46 7.8 36 36 E 15 24 29.91 1013 10 16.09344 0 0
6:15 pm 18:15 Sunny 75 23.7 48 8.7 38 38 ESE 12 19 29.91 1013 10 16.09344 0 0
6:35 pm 18:35 Sunny 74 23.5 47 8.3 38 38 E 13 20 29.94 1014 10 16.09344 0 0
7:15 pm 19:15 Sunny 73 22.8 46 7.5 37 37 E 15 24 29.94 1014 10 16.09344 0 0
7:35 pm 19:35 Sunny 72 22.3 46 7.6 39 39 E 15 24 29.94 1014 10 16.09344 0 0
7:55 pm 19:55 Sunny 70 21.3 46 7.9 42 42 ESE 15 24 29.94 1014 10 16.09344 0 0
8:15 pm 20:15 Sunny 69 20.7 48 8.7 46 46 ESE 12 19 29.94 1014 10 16.09344 0 0
8:35 pm 20:35 Sunny 69 20.3 48 8.9 48 48 ESE 12 19 29.94 1014 10 16.09344 0 0
8:55 pm 20:55 Sunny 68 19.8 48 9 50 50 E 10 17 29.97 1015 10 16.09344 0 0
9:15 pm 21:15 Clear 66 19 49 9.5 54 54 E 8 13 29.94 1014 10 16.09344 0 0
9:35 pm 21:35 Clear 65 18.2 50 10 59 59 E 8 13 29.97 1015 10 16.09344 0 0
9:55 pm 21:55 Clear 64 17.7 49 9.7 60 60 ESE 6 9 29.97 1015 10 16.09344 0 0
10:15 pm 22:15 Clear 64 17.6 50 9.8 60 60 E 5 7 29.97 1015 10 16.09344 0 0
10:35 pm 22:35 Partly Cloudy 62 16.7 50 10.1 65 65 E 6 9 30 1016 10 16.09344 0 0
10:55 pm 22:55 Partly Cloudy 62 16.6 51 10.3 67 67 SE 5 7 30 1016 10 16.09344 0 0
11:15 pm 23:15 Cloudy 64 17.5 50 10.2 62 62 E 6 9 29.97 1015 10 16.09344 0 0
11:35 pm 23:35 Mostly Cloudy 62 16.5 51 10.6 68 68 E 6 9 30 1016 10 16.09344 0 0
11:55 pm 23:55 Cloudy 61 16 52 11 72 72 ENE 5 7 30 1016 10 16.09344 0 0

Powered by AerisWeather